Regional Weather Roundup
Issued by NWS

Home | Current Version | Previous Version | Graphics & Text | Print | Product List | Glossary On
Versions: 1 2 3 4 5 6 7 8 9 10 11 12 13 14 15 16 17 18 19 20 21 22 23 24 25 26 27 28 29 30 31 32 33 34 35 36 37 38 39 40 41 42 43 44 45 46 47 48 49 50
000
ASUS43 KLSX 301407
RWRMO

WEATHER SUMMARY FOR MISSOURI
NATIONAL WEATHER SERVICE SPRINGFIELD MO
900 AM CDT WED JUL 30 2014

NOTE: "FAIR" INDICATES FEW OR NO CLOUDS BELOW 12,000 FEET WITH NO
       SIGNIFICANT WEATHER AND/OR OBSTRUCTIONS TO VISIBILITY.
       CURRENT SKY AND/OR WEATHER CONDITIONS ARE NOT AVAILABLE FOR
       CHILLICOTHE AND FARMINGTON.

MOZ001>031-035>038-043-044-053-054-301500-
...NORTHERN AND WESTERN MISSOURI...

CITY           SKY/WX    TMP DP  RH WIND       PRES   REMARKS
KANSAS CTY INT CLOUDY    65  60  84 N5        30.12S
KANSAS C DTWN  CLOUDY    69  58  67 N5        30.11S
LEE`S SUMMIT   CLOUDY    67  59  75 N5        30.13R
ST JOSEPH      PTSUNNY   65  60  84 N5        30.13R
CHILLICOTHE      N/A     68  59  73 CALM      30.13S
KIRKSVILLE     PTSUNNY   71  59  65 N6        30.13R

$$
MOZ066>068-077>081-088>096-101>105-301500-
...SOUTHWEST MISSOURI...

CITY           SKY/WX    TMP DP  RH WIND       PRES   REMARKS
SPRINGFIELD    PTSUNNY   72  60  66 S6        30.10R HAZE
JOPLIN         LGT RAIN  67  65  93 VRB5      30.11R

$$
MOZ032>034-039>042-045>050-055>058-069>072-301500-
...CENTRAL MISSOURI...

CITY           SKY/WX    TMP DP  RH WIND       PRES   REMARKS
COLUMBIA       CLOUDY    69  60  73 N3        30.11R
JEFFERSON CITY CLOUDY    65  60  84 CALM      30.10S
ROLLA          CLOUDY    65  58  78 SW5       30.10R
SEDALIA        CLOUDY    66  62  87 N3        30.11R
WHITEMAN AFB   PTSUNNY   65  54  69 N5        30.10S
OSAGE BEACH    CLOUDY    66  57  72 CALM      30.10S

$$
MOZ051-052-059>065-301500-
...EAST CENTRAL MISSOURI...

CITY           SKY/WX    TMP DP  RH WIND       PRES   REMARKS
ST LOUIS INTL  PTSUNNY   77  58  51 CALM      30.11R
SPIRIT OF STL  PTSUNNY   72  60  66 CALM      30.09S
ST CHARLES     MOSUNNY   71  63  75 CALM      30.10R

$$
MOZ072>076-082>087-097>100-106>115-301500-
...SOUTH CENTRAL AND SOUTHEAST MISSOURI...

CITY           SKY/WX    TMP DP  RH WIND       PRES   REMARKS
CAPE GIRARDEAU CLOUDY    68  60  75 CALM      30.11S
FARMINGTON     CLOUDY    66  57  72 S3        30.14S
POPLAR BLUFF   MOSUNNY   68  59  73 CALM      30.10S
WEST PLAINS    PTSUNNY   67  59  75 SW5       30.13R

$$



USA.gov is the U.S. government's official web portal to all federal, state and local government web resources and services.